• In Russia
  • List of Countries
  • For 7 days
  • Water Temperature
  • Satellite Maps
  • Weather Map
  • Weather Widgets
  • user-avatar
    Login

    Hourly Weather Novaya Derevnya

    Today, 22 April, Sunday

    Time Temperature Precipitation Wind Pressure Humidity
    00:00 +4°C° 0.1 mm 8 mps 740 mmHg 52%
    01:00 +4°C° 0 mm 8 mps 739 mmHg 55%
    02:00 +4°C° 0 mm 8 mps 738 mmHg 58%
    03:00 +4°C° 0 mm 12 mps 736 mmHg 57%
    04:00 +4°C° 0 mm 11 mps 735 mmHg 61%
    05:00 +4°C° 0 mm 11 mps 735 mmHg 65%
    06:00 +5°C° 0 mm 10 mps 734 mmHg 69%
    07:00 +6°C° 1 mm 10 mps 733 mmHg 73%
    08:00 +6°C° 1 mm 10 mps 733 mmHg 76%
    09:00 +6°C° 0 mm 10 mps 732 mmHg 81%
    10:00 +6°C° 1 mm 9 mps 732 mmHg 81%
    11:00 +6°C° 1 mm 8 mps 732 mmHg 81%
    12:00 +6°C° 1 mm 7 mps 733 mmHg 81%
    13:00 +7°C° 0.1 mm 8 mps 733 mmHg 73%
    14:00 +9°C° 0.1 mm 8 mps 733 mmHg 64%
    15:00 +8°C° 0 mm 9 mps 734 mmHg 56%
    16:00 +7°C° 0 mm 8 mps 735 mmHg 58%
    17:00 +6°C° 0 mm 7 mps 735 mmHg 59%
    18:00 +5°C° 0 mm 6 mps 736 mmHg 61%
    19:00 +5°C° 0 mm 5 mps 737 mmHg 64%
    20:00 +3°C° 0 mm 5 mps 737 mmHg 67%
    21:00 +3°C° 0 mm 4 mps 738 mmHg 69%
    22:00 +1°C° 0 mm 4 mps 738 mmHg 72%
    23:00 0°C° 0 mm 4 mps 738 mmHg 74%

    Tomorrow, 23 April, Monday

    Time Temperature Precipitation Wind Pressure Humidity
    00:00 +1°C° 0 mm 3 mps 739 mmHg 77%
    01:00 0°C° 0 mm 3 mps 739 mmHg 78%
    02:00 0°C° 0 mm 3 mps 739 mmHg 80%
    03:00 -1°C° 0 mm 3 mps 739 mmHg 82%
    04:00 -2°C° 0 mm 4 mps 740 mmHg 79%
    05:00 -1°C° 0 mm 4 mps 740 mmHg 77%
    06:00 -1°C° 0 mm 5 mps 740 mmHg 74%
    07:00 0°C° 0 mm 5 mps 741 mmHg 69%
    08:00 0°C° 0 mm 5 mps 741 mmHg 63%
    09:00 +1°C° 0 mm 5 mps 741 mmHg 57%
    10:00 +2°C° 0 mm 5 mps 741 mmHg 55%
    11:00 +2°C° 0 mm 5 mps 742 mmHg 53%
    12:00 +2°C° 0 mm 5 mps 742 mmHg 51%
    13:00 +3°C° 0 mm 5 mps 742 mmHg 50%
    14:00 +3°C° 0 mm 5 mps 742 mmHg 50%
    15:00 +3°C° 0 mm 5 mps 743 mmHg 49%
    16:00 +2°C° 0.1 mm 5 mps 743 mmHg 51%
    17:00 +2°C° 0.1 mm 5 mps 743 mmHg 54%
    18:00 +1°C° 0.1 mm 4 mps 744 mmHg 57%
    19:00 +1°C° 0 mm 4 mps 744 mmHg 62%
    20:00 0°C° 0 mm 4 mps 745 mmHg 67%
    21:00 0°C° 0 mm 3 mps 745 mmHg 72%
    22:00 -1°C° 0 mm 3 mps 745 mmHg 75%
    23:00 -1°C° 0 mm 3 mps 745 mmHg 77%

    Day after tomorrow, 24 April, Tuesday

    Time Temperature Precipitation Wind Pressure Humidity
    00:00 -2°C° 0 mm 3 mps 745 mmHg 79%
    01:00 -2°C° 0 mm 3 mps 745 mmHg 80%
    02:00 -3°C° 0 mm 4 mps 746 mmHg 81%
    03:00 -3°C° 0 mm 4 mps 746 mmHg 82%
    04:00 -3°C° 0 mm 4 mps 746 mmHg 79%
    05:00 -2°C° 0 mm 5 mps 747 mmHg 77%
    06:00 -2°C° 0 mm 5 mps 747 mmHg 75%
    07:00 -2°C° 0 mm 6 mps 747 mmHg 70%
    08:00 -2°C° 0 mm 6 mps 748 mmHg 65%
    09:00 -1°C° 0 mm 6 mps 748 mmHg 60%
    10:00 +1°C° 0 mm 6 mps 748 mmHg 57%
    11:00 +1°C° 0 mm 6 mps 748 mmHg 53%
    12:00 +2°C° 0 mm 6 mps 749 mmHg 50%
    13:00 +2°C° 0 mm 6 mps 749 mmHg 49%
    14:00 +2°C° 0 mm 6 mps 749 mmHg 49%
    15:00 +2°C° 0 mm 6 mps 749 mmHg 48%
    16:00 +2°C° 0 mm 5 mps 749 mmHg 51%
    17:00 +3°C° 0 mm 4 mps 750 mmHg 53%
    18:00 +1°C° 0 mm 4 mps 750 mmHg 56%
    19:00 +1°C° 0 mm 3 mps 750 mmHg 59%
    20:00 +1°C° 0 mm 3 mps 750 mmHg 63%
    21:00 0°C° 0 mm 3 mps 751 mmHg 67%
    22:00 -1°C° 0 mm 2 mps 751 mmHg 67%
    23:00 -1°C° 0 mm 2 mps 751 mmHg 68%

    25 April, Wednesday

    Time Temperature Precipitation Wind Pressure Humidity
    00:00 -1°C° 0 mm 2 mps 751 mmHg 69%
    01:00 -1°C° 0 mm 2 mps 751 mmHg 70%
    02:00 -2°C° 0 mm 2 mps 751 mmHg 72%
    03:00 -2°C° 0 mm 2 mps 752 mmHg 73%
    04:00 -1°C° 0 mm 2 mps 752 mmHg 71%
    05:00 -1°C° 0 mm 2 mps 752 mmHg 69%
    06:00 +1°C° 0 mm 2 mps 752 mmHg 67%
    07:00 +2°C° 0 mm 2 mps 752 mmHg 60%
    08:00 +4°C° 0 mm 2 mps 752 mmHg 54%
    09:00 +5°C° 0 mm 2 mps 752 mmHg 47%
    10:00 +6°C° 0 mm 2 mps 752 mmHg 45%
    11:00 +7°C° 0 mm 2 mps 752 mmHg 43%
    12:00 +8°C° 0 mm 2 mps 752 mmHg 40%
    13:00 +9°C° 0 mm 2 mps 752 mmHg 40%
    14:00 +10°C° 0 mm 2 mps 751 mmHg 40%
    15:00 +10°C° 0 mm 2 mps 751 mmHg 40%
    16:00 +10°C° 0 mm 2 mps 751 mmHg 46%
    17:00 +9°C° 0 mm 2 mps 751 mmHg 52%
    18:00 +9°C° 0 mm 2 mps 751 mmHg 58%
    19:00 +8°C° 0.1 mm 2 mps 751 mmHg 64%
    20:00 +7°C° 0.1 mm 2 mps 751 mmHg 70%
    21:00 +6°C° 0.1 mm 2 mps 751 mmHg 77%
    22:00 +6°C° 0.2 mm 2 mps 751 mmHg 81%
    23:00 +6°C° 0.2 mm 2 mps 751 mmHg 85%

    26 April, Thursday

    Time Temperature Precipitation Wind Pressure Humidity
    00:00 +5°C° 0.2 mm 2 mps 751 mmHg 89%
    01:00 +5°C° 0.1 mm 2 mps 751 mmHg 90%
    02:00 +5°C° 0.1 mm 2 mps 751 mmHg 92%
    03:00 +4°C° 0.1 mm 2 mps 751 mmHg 93%
    04:00 +5°C° 0 mm 2 mps 751 mmHg 91%
    05:00 +5°C° 0 mm 2 mps 751 mmHg 89%
    06:00 +5°C° 0 mm 2 mps 751 mmHg 87%
    07:00 +7°C° 0 mm 3 mps 751 mmHg 81%
    08:00 +7°C° 0 mm 4 mps 750 mmHg 75%
    09:00 +10°C° 0 mm 4 mps 750 mmHg 68%
    10:00 +10°C° 0 mm 5 mps 750 mmHg 66%
    11:00 +12°C° 0 mm 5 mps 749 mmHg 64%
    12:00 +13°C° 0 mm 6 mps 749 mmHg 61%
    13:00 +13°C° 0.1 mm 6 mps 748 mmHg 63%
    14:00 +12°C° 0.1 mm 7 mps 748 mmHg 66%
    15:00 +12°C° 0.1 mm 7 mps 747 mmHg 68%
    16:00 +11°C° 0.6 mm 8 mps 746 mmHg 74%
    17:00 +11°C° 0.6 mm 9 mps 745 mmHg 79%
    18:00 +10°C° 0.6 mm 9 mps 743 mmHg 85%
    19:00 +11°C° 0.5 mm 9 mps 743 mmHg 86%
    20:00 +11°C° 0.5 mm 8 mps 743 mmHg 86%
    21:00 +12°C° 0.5 mm 8 mps 742 mmHg 86%
    22:00 +11°C° 0.1 mm 7 mps 743 mmHg 87%
    23:00 +10°C° 0.1 mm 6 mps 744 mmHg 88%

    27 April, Friday

    Time Temperature Precipitation Wind Pressure Humidity
    00:00 +8°C° 0.1 mm 5 mps 744 mmHg 90%
    01:00 +8°C° 0 mm 5 mps 745 mmHg 90%
    02:00 +7°C° 0 mm 5 mps 746 mmHg 90%
    03:00 +6°C° 0 mm 5 mps 746 mmHg 91%
    04:00 +7°C° 0 mm 5 mps 747 mmHg 88%
    05:00 +7°C° 0 mm 5 mps 748 mmHg 85%
    06:00 +7°C° 0 mm 5 mps 749 mmHg 82%
    07:00 +8°C° 0 mm 5 mps 749 mmHg 75%
    08:00 +10°C° 0 mm 5 mps 750 mmHg 67%
    09:00 +12°C° 0 mm 5 mps 750 mmHg 59%
    10:00 +13°C° 0 mm 5 mps 751 mmHg 53%
    11:00 +14°C° 0 mm 5 mps 751 mmHg 48%
    12:00 +16°C° 0 mm 5 mps 751 mmHg 42%
    13:00 +16°C° 0 mm 6 mps 751 mmHg 41%
    14:00 +16°C° 0 mm 6 mps 752 mmHg 40%
    15:00 +17°C° 0 mm 6 mps 752 mmHg 39%
    16:00 +16°C° 0 mm 6 mps 752 mmHg 43%
    17:00 +16°C° 0 mm 5 mps 752 mmHg 48%
    18:00 +15°C° 0 mm 4 mps 752 mmHg 52%
    19:00 +14°C° 0 mm 4 mps 752 mmHg 56%
    20:00 +12°C° 0 mm 4 mps 752 mmHg 61%
    21:00 +11°C° 0 mm 4 mps 752 mmHg 65%
    22:00 +11°C° 0 mm 4 mps 753 mmHg 68%
    23:00 +10°C° 0 mm 4 mps 753 mmHg 70%
    Show more